Time,TemperatureF,DewpointF,PressureIn,WindDirection,WindDirectionDegrees,WindSpeedMPH,WindSpeedGustMPH,Humidity,HourlyPrecipIn,Conditions,Clouds,dailyrainin,SoftwareType,DateUTC
2013-08-30 00:00:00,66.7,64.9,29.98,ESE,119,0.0,0.0,94,0.00,,---,0.00,VWS V14.01,2013-08-30 04:00:00,
2013-08-30 00:01:00,66.6,64.8,29.97,ESE,119,0.0,0.0,94,0.00,,---,0.00,VWS V14.01,2013-08-30 04:01:00,
2013-08-30 00:02:00,66.6,64.8,29.97,ESE,119,0.0,0.0,94,0.00,,---,0.00,VWS V14.01,2013-08-30 04:02:00,
2013-08-30 00:07:00,66.5,64.7,29.97,ESE,119,0.0,0.0,94,0.00,,---,0.00,VWS V14.01,2013-08-30 04:07:00,
2013-08-30 00:12:00,66.4,64.6,29.97,ESE,119,0.0,0.0,94,0.00,,---,0.00,VWS V14.01,2013-08-30 04:12:00,
2013-08-30 00:17:00,66.3,64.5,29.97,ESE,119,0.0,0.0,94,0.00,,---,0.00,VWS V14.01,2013-08-30 04:17:00,
2013-08-30 00:22:00,66.2,64.4,29.97,ESE,119,0.0,0.0,94,0.00,,---,0.00,VWS V14.01,2013-08-30 04:22:00,
2013-08-30 00:27:00,66.1,64.3,29.97,ESE,119,0.0,0.0,94,0.00,,---,0.00,VWS V14.01,2013-08-30 04:27:00,
2013-08-30 00:32:00,66.1,64.3,29.97,ESE,119,0.0,0.0,94,0.00,,---,0.00,VWS V14.01,2013-08-30 04:32:00,
2013-08-30 00:37:00,66.0,64.2,29.97,ESE,119,0.0,0.0,94,0.00,,---,0.00,VWS V14.01,2013-08-30 04:37:00,
2013-08-30 00:42:00,65.9,64.1,29.97,ESE,119,0.0,0.0,94,0.00,,---,0.00,VWS V14.01,2013-08-30 04:42:00,
2013-08-30 00:47:00,65.8,64.0,29.97,ESE,119,0.0,0.0,94,0.00,,---,0.00,VWS V14.01,2013-08-30 04:47:00,
2013-08-30 00:52:00,65.7,63.9,29.97,ESE,119,0.0,0.0,94,0.00,,---,0.00,VWS V14.01,2013-08-30 04:52:00,
2013-08-30 00:57:00,65.6,64.1,29.97,ESE,119,0.0,0.0,95,0.00,,---,0.00,VWS V14.01,2013-08-30 04:57:00,
2013-08-30 01:02:00,65.6,64.1,29.97,ESE,119,0.0,0.0,95,0.00,,---,0.00,VWS V14.01,2013-08-30 05:02:00,
2013-08-30 01:07:00,65.5,64.0,29.97,ESE,119,0.0,0.0,95,0.00,,---,0.00,VWS V14.01,2013-08-30 05:07:00,
2013-08-30 01:12:00,65.4,63.9,29.97,ESE,119,0.0,0.0,95,0.00,,---,0.00,VWS V14.01,2013-08-30 05:12:00,
2013-08-30 01:17:00,65.3,63.8,29.97,ESE,119,0.0,0.0,95,0.00,,---,0.00,VWS V14.01,2013-08-30 05:17:00,
2013-08-30 01:22:00,65.2,63.7,29.97,ESE,119,0.0,0.0,95,0.00,,---,0.00,VWS V14.01,2013-08-30 05:22:00,
2013-08-30 01:27:00,65.2,63.7,29.97,ESE,119,0.0,0.0,95,0.00,,---,0.00,VWS V14.01,2013-08-30 05:27:00,
2013-08-30 01:32:00,65.0,63.5,29.97,ESE,119,0.0,0.0,95,0.00,,---,0.00,VWS V14.01,2013-08-30 05:32:00,
2013-08-30 01:37:00,65.0,63.5,29.97,ESE,119,0.0,0.0,95,0.00,,---,0.00,VWS V14.01,2013-08-30 05:37:00,
2013-08-30 01:42:00,64.9,63.4,29.97,ESE,119,0.0,0.0,95,0.00,,---,0.00,VWS V14.01,2013-08-30 05:42:00,
2013-08-30 01:47:00,64.8,63.3,29.97,ESE,119,0.0,0.0,95,0.00,,---,0.00,VWS V14.01,2013-08-30 05:47:00,
2013-08-30 01:52:00,64.7,63.2,29.97,ESE,119,0.0,0.0,95,0.00,,---,0.00,VWS V14.01,2013-08-30 05:52:00,
2013-08-30 01:57:00,64.7,63.2,29.97,ESE,119,0.0,0.0,95,0.00,,---,0.00,VWS V14.01,2013-08-30 05:57:00,
2013-08-30 02:02:00,64.6,63.1,29.96,ESE,119,0.0,0.0,95,0.00,,---,0.00,VWS V14.01,2013-08-30 06:02:00,
2013-08-30 02:07:00,64.5,63.0,29.97,ESE,119,0.0,0.0,95,0.00,,---,0.00,VWS V14.01,2013-08-30 06:07:00,
2013-08-30 02:12:00,64.4,62.9,29.96,ESE,119,0.0,0.0,95,0.00,,---,0.00,VWS V14.01,2013-08-30 06:12:00,
2013-08-30 02:17:00,64.4,62.9,29.96,ESE,119,0.0,0.0,95,0.00,,---,0.00,VWS V14.01,2013-08-30 06:17:00,
2013-08-30 02:22:00,64.3,62.8,29.97,ESE,119,0.0,0.0,95,0.00,,---,0.00,VWS V14.01,2013-08-30 06:22:00,
2013-08-30 02:27:00,64.3,62.8,29.97,ESE,119,0.0,0.0,95,0.00,,---,0.00,VWS V14.01,2013-08-30 06:27:00,
2013-08-30 02:32:00,64.2,62.7,29.96,ESE,119,0.0,0.0,95,0.00,,---,0.00,VWS V14.01,2013-08-30 06:32:00,
2013-08-30 02:37:00,64.1,62.6,29.96,ESE,119,0.0,0.0,95,0.00,,---,0.00,VWS V14.01,2013-08-30 06:37:00,
2013-08-30 02:42:00,64.0,62.5,29.96,ESE,119,0.0,0.0,95,0.00,,---,0.00,VWS V14.01,2013-08-30 06:42:00,
2013-08-30 02:47:00,64.0,62.5,29.96,ESE,119,0.0,0.0,95,0.00,,---,0.00,VWS V14.01,2013-08-30 06:47:00,
2013-08-30 02:52:00,63.9,62.4,29.96,ESE,119,0.0,0.0,95,0.00,,---,0.00,VWS V14.01,2013-08-30 06:52:00,
2013-08-30 02:57:00,63.8,62.3,29.96,ESE,119,0.0,0.0,95,0.00,,---,0.00,VWS V14.01,2013-08-30 06:57:00,
2013-08-30 03:02:00,63.8,62.3,29.96,ESE,119,0.0,0.0,95,0.00,,---,0.00,VWS V14.01,2013-08-30 07:02:00,
2013-08-30 03:07:00,63.6,62.2,29.96,ESE,119,0.0,0.0,95,0.00,,---,0.00,VWS V14.01,2013-08-30 07:07:00,
2013-08-30 03:12:00,63.6,62.2,29.96,ESE,119,0.0,0.0,95,0.00,,---,0.00,VWS V14.01,2013-08-30 07:12:00,
2013-08-30 03:17:00,63.4,62.0,29.96,ESE,119,0.0,0.0,95,0.00,,---,0.00,VWS V14.01,2013-08-30 07:17:00,
2013-08-30 03:22:00,63.4,62.0,29.96,ESE,119,0.0,0.0,95,0.00,,---,0.00,VWS V14.01,2013-08-30 07:22:00,
2013-08-30 03:27:00,63.3,61.8,29.96,ESE,119,0.0,0.0,95,0.00,,---,0.00,VWS V14.01,2013-08-30 07:27:00,
2013-08-30 03:32:00,63.2,61.8,29.95,ESE,119,0.0,0.0,95,0.00,,---,0.00,VWS V14.01,2013-08-30 07:32:00,
2013-08-30 03:37:00,63.2,62.0,29.95,ESE,119,0.0,0.0,96,0.00,,---,0.00,VWS V14.01,2013-08-30 07:37:00,
2013-08-30 03:42:00,63.1,61.9,29.95,ESE,119,0.0,0.0,96,0.00,,---,0.00,VWS V14.01,2013-08-30 07:42:00,
2013-08-30 03:47:00,63.0,61.8,29.96,ESE,119,0.0,0.0,96,0.00,,---,0.00,VWS V14.01,2013-08-30 07:47:00,
2013-08-30 03:52:00,63.0,61.8,29.96,ESE,119,0.0,0.0,96,0.00,,---,0.00,VWS V14.01,2013-08-30 07:52:00,
2013-08-30 03:57:00,62.9,61.5,29.96,ESE,119,0.0,0.0,95,0.00,,---,0.00,VWS V14.01,2013-08-30 07:57:00,
2013-08-30 04:02:00,62.9,61.5,29.96,ESE,119,0.0,0.0,95,0.00,,---,0.00,VWS V14.01,2013-08-30 08:02:00,
2013-08-30 04:07:00,62.7,61.2,29.96,ESE,119,0.0,0.0,95,0.00,,---,0.00,VWS V14.01,2013-08-30 08:07:00,
2013-08-30 04:12:00,62.7,61.5,29.96,ESE,119,0.0,0.0,96,0.00,,---,0.00,VWS V14.01,2013-08-30 08:12:00,
2013-08-30 04:17:00,62.6,61.5,29.96,ESE,119,0.0,0.0,96,0.00,,---,0.00,VWS V14.01,2013-08-30 08:17:00,
2013-08-30 04:22:00,62.5,61.3,29.96,ESE,119,0.0,0.0,96,0.00,,---,0.00,VWS V14.01,2013-08-30 08:22:00,
2013-08-30 04:27:00,62.5,61.3,29.96,ESE,119,0.0,0.0,96,0.00,,---,0.00,VWS V14.01,2013-08-30 08:27:00,
2013-08-30 04:32:00,62.4,61.2,29.96,ESE,119,0.0,0.0,96,0.00,,---,0.00,VWS V14.01,2013-08-30 08:32:00,
2013-08-30 04:37:00,62.4,61.2,29.96,ESE,119,0.0,0.0,96,0.00,,---,0.00,VWS V14.01,2013-08-30 08:37:00,
2013-08-30 04:42:00,62.3,61.2,29.96,ESE,119,0.0,0.0,96,0.00,,---,0.00,VWS V14.01,2013-08-30 08:42:00,
2013-08-30 04:47:00,62.2,61.0,29.96,ESE,119,0.0,0.0,96,0.00,,---,0.00,VWS V14.01,2013-08-30 08:47:00,
2013-08-30 04:52:00,62.2,61.0,29.96,ESE,119,0.0,0.0,96,0.00,,---,0.00,VWS V14.01,2013-08-30 08:52:00,
2013-08-30 04:57:00,62.2,61.0,29.96,ESE,119,0.0,0.0,96,0.00,,---,0.00,VWS V14.01,2013-08-30 08:57:00,
2013-08-30 05:02:00,62.1,61.0,29.96,ESE,119,0.0,0.0,96,0.00,,---,0.00,VWS V14.01,2013-08-30 09:02:00,
2013-08-30 05:07:00,62.0,60.8,29.96,ESE,119,0.0,0.0,96,0.00,,---,0.00,VWS V14.01,2013-08-30 09:07:00,
2013-08-30 05:12:00,61.9,60.8,29.96,ESE,119,0.0,0.0,96,0.00,,---,0.00,VWS V14.01,2013-08-30 09:12:00,
2013-08-30 05:17:00,61.8,60.7,29.96,ESE,119,0.0,0.0,96,0.00,,---,0.00,VWS V14.01,2013-08-30 09:17:00,
2013-08-30 05:22:00,61.7,60.5,29.96,ESE,119,0.0,0.0,96,0.00,,---,0.00,VWS V14.01,2013-08-30 09:22:00,
2013-08-30 05:27:00,61.7,60.5,29.96,ESE,119,0.0,0.0,96,0.00,,---,0.00,VWS V14.01,2013-08-30 09:27:00,
2013-08-30 05:32:00,61.6,60.5,29.96,ESE,119,0.0,0.0,96,0.00,,---,0.00,VWS V14.01,2013-08-30 09:32:00,
2013-08-30 05:37:00,61.6,60.5,29.96,ESE,119,0.0,0.0,96,0.00,,---,0.00,VWS V14.01,2013-08-30 09:37:00,
2013-08-30 05:42:00,61.5,60.3,29.96,ESE,119,0.0,0.0,96,0.00,,---,0.00,VWS V14.01,2013-08-30 09:42:00,
2013-08-30 05:47:00,61.5,60.3,29.96,ESE,119,0.0,0.0,96,0.00,,---,0.00,VWS V14.01,2013-08-30 09:47:00,
2013-08-30 05:52:00,61.4,60.2,29.97,ESE,119,0.0,0.0,96,0.00,,---,0.00,VWS V14.01,2013-08-30 09:52:00,
2013-08-30 05:57:00,61.4,60.2,29.96,ESE,119,0.0,0.0,96,0.00,,---,0.00,VWS V14.01,2013-08-30 09:57:00,
2013-08-30 06:02:00,61.3,60.2,29.96,ESE,119,0.0,0.0,96,0.00,,---,0.00,VWS V14.01,2013-08-30 10:02:00,
2013-08-30 06:07:00,61.3,60.2,29.96,ESE,119,0.0,0.0,96,0.00,,---,0.00,VWS V14.01,2013-08-30 10:07:00,
2013-08-30 06:12:00,61.2,60.0,29.96,ESE,119,0.0,0.0,96,0.00,,---,0.00,VWS V14.01,2013-08-30 10:12:00,
2013-08-30 06:17:00,61.1,60.0,29.97,ESE,119,0.0,0.0,96,0.00,,---,0.00,VWS V14.01,2013-08-30 10:17:00,
2013-08-30 06:22:00,61.1,60.0,29.97,ESE,119,0.0,0.0,96,0.00,,---,0.00,VWS V14.01,2013-08-30 10:22:00,
2013-08-30 06:27:00,61.1,60.0,29.96,ESE,119,0.0,0.0,96,0.00,,---,0.00,VWS V14.01,2013-08-30 10:27:00,
2013-08-30 06:32:00,61.0,59.9,29.96,ESE,119,0.0,0.0,96,0.00,,---,0.00,VWS V14.01,2013-08-30 10:32:00,
2013-08-30 06:37:00,60.9,59.8,29.96,ESE,119,0.0,0.0,96,0.00,,---,0.00,VWS V14.01,2013-08-30 10:37:00,
2013-08-30 06:42:00,60.9,59.8,29.96,ESE,119,0.0,0.0,96,0.00,,---,0.00,VWS V14.01,2013-08-30 10:42:00,
2013-08-30 06:47:00,60.8,59.7,29.97,ESE,119,0.0,0.0,96,0.00,,---,0.00,VWS V14.01,2013-08-30 10:47:00,
2013-08-30 06:52:00,60.8,59.7,29.97,ESE,119,0.0,0.0,96,0.00,,---,0.00,VWS V14.01,2013-08-30 10:52:00,
2013-08-30 06:57:00,60.7,59.6,29.97,ESE,119,0.0,0.0,96,0.00,,---,0.00,VWS V14.01,2013-08-30 10:57:00,
2013-08-30 07:02:00,60.7,59.6,29.97,ESE,119,0.0,0.0,96,0.00,,---,0.00,VWS V14.01,2013-08-30 11:02:00,
2013-08-30 07:07:00,60.7,59.6,29.97,ESE,119,0.0,0.0,96,0.00,,---,0.00,VWS V14.01,2013-08-30 11:07:00,
2013-08-30 07:12:00,60.7,59.6,29.97,ESE,119,0.0,0.0,96,0.00,,---,0.00,VWS V14.01,2013-08-30 11:12:00,
2013-08-30 07:17:00,60.7,59.6,29.97,ESE,119,0.0,0.0,96,0.00,,---,0.00,VWS V14.01,2013-08-30 11:17:00,
2013-08-30 07:22:00,60.8,59.7,29.97,ESE,119,0.0,0.0,96,0.00,,---,0.00,VWS V14.01,2013-08-30 11:22:00,
2013-08-30 07:27:00,60.9,59.8,29.98,ESE,119,0.0,0.0,96,0.00,,---,0.00,VWS V14.01,2013-08-30 11:27:00,
2013-08-30 07:32:00,61.0,59.9,29.97,ESE,119,0.0,0.0,96,0.00,,---,0.00,VWS V14.01,2013-08-30 11:32:00,
2013-08-30 07:37:00,61.1,60.2,29.98,ESE,119,0.0,0.0,97,0.00,,---,0.00,VWS V14.01,2013-08-30 11:37:00,
2013-08-30 07:43:00,61.2,60.3,29.98,ESE,119,0.0,0.0,97,0.00,,---,0.00,VWS V14.01,2013-08-30 11:43:00,
2013-08-30 07:48:00,61.4,60.5,29.98,ESE,119,0.0,0.0,97,0.00,,---,0.00,VWS V14.01,2013-08-30 11:48:00,
2013-08-30 07:53:00,61.7,60.8,29.98,ESE,119,0.0,0.0,97,0.00,,---,0.00,VWS V14.01,2013-08-30 11:53:00,
2013-08-30 07:58:00,61.9,61.0,29.98,ESE,119,0.0,0.0,97,0.00,,---,0.00,VWS V14.01,2013-08-30 11:58:00,
2013-08-30 08:03:00,62.1,61.2,29.98,ESE,119,0.0,0.0,97,0.00,,---,0.00,VWS V14.01,2013-08-30 12:03:00,
2013-08-30 08:08:00,62.3,61.4,29.98,ESE,119,0.0,0.0,97,0.00,,---,0.00,VWS V14.01,2013-08-30 12:08:00,
2013-08-30 08:13:00,62.5,61.6,29.98,ESE,119,0.0,0.0,97,0.00,,---,0.00,VWS V14.01,2013-08-30 12:13:00,
2013-08-30 08:18:00,62.8,62.2,29.97,ESE,119,0.0,0.0,98,0.00,,---,0.00,VWS V14.01,2013-08-30 12:18:00,
2013-08-30 08:23:00,63.2,62.6,29.97,ESE,119,0.0,0.0,98,0.00,,---,0.00,VWS V14.01,2013-08-30 12:23:00,
2013-08-30 08:28:00,63.6,63.0,29.97,ESE,119,0.0,0.0,98,0.00,,---,0.00,VWS V14.01,2013-08-30 12:28:00,
2013-08-30 08:33:00,63.8,63.2,29.97,ESE,119,0.0,0.0,98,0.00,,---,0.00,VWS V14.01,2013-08-30 12:33:00,
2013-08-30 08:38:00,64.4,63.8,29.97,ESE,119,0.0,0.0,98,0.00,,---,0.00,VWS V14.01,2013-08-30 12:38:00,
2013-08-30 08:43:00,65.0,64.4,29.97,ESE,119,0.0,0.0,98,0.00,,---,0.00,VWS V14.01,2013-08-30 12:43:00,
2013-08-30 08:48:00,65.4,64.8,29.97,ESE,119,0.0,0.0,98,0.00,,---,0.00,VWS V14.01,2013-08-30 12:48:00,
2013-08-30 08:53:00,66.2,65.9,29.97,SE,125,0.0,0.0,99,0.00,,---,0.00,VWS V14.01,2013-08-30 12:53:00,
2013-08-30 08:58:00,67.0,66.7,29.98,SE,125,0.0,0.0,99,0.00,,---,0.00,VWS V14.01,2013-08-30 12:58:00,
2013-08-30 09:03:00,67.9,67.6,29.97,South,169,0.0,1.0,99,0.00,,---,0.00,VWS V14.01,2013-08-30 13:03:00,
2013-08-30 09:08:00,68.7,68.4,29.98,South,183,0.0,0.0,99,0.00,,---,0.00,VWS V14.01,2013-08-30 13:08:00,
2013-08-30 09:13:00,69.2,68.9,29.98,SSW,196,0.0,1.0,99,0.00,,---,0.00,VWS V14.01,2013-08-30 13:13:00,
2013-08-30 09:18:00,69.7,69.4,29.98,SSE,167,0.0,1.0,99,0.00,,---,0.00,VWS V14.01,2013-08-30 13:18:00,
2013-08-30 09:23:00,70.2,69.9,29.98,South,171,0.0,3.0,99,0.00,,---,0.00,VWS V14.01,2013-08-30 13:23:00,
2013-08-30 09:28:00,70.7,70.4,29.98,SSE,164,0.0,3.0,99,0.00,,---,0.00,VWS V14.01,2013-08-30 13:28:00,
2013-08-30 09:33:00,71.2,70.9,29.97,SSE,148,0.0,3.0,99,0.00,,---,0.00,VWS V14.01,2013-08-30 13:33:00,
2013-08-30 09:38:00,71.6,71.3,29.97,SE,144,0.0,4.0,99,0.00,,---,0.00,VWS V14.01,2013-08-30 13:38:00,
2013-08-30 09:43:00,71.8,71.5,29.97,SE,137,3.0,4.0,99,0.00,,---,0.00,VWS V14.01,2013-08-30 13:43:00,
2013-08-30 09:48:00,72.1,71.8,29.97,SE,126,0.0,4.0,99,0.00,,---,0.00,VWS V14.01,2013-08-30 13:48:00,
2013-08-30 09:53:00,72.6,72.3,29.97,WSW,246,0.0,4.0,99,0.00,,---,0.00,VWS V14.01,2013-08-30 13:53:00,
2013-08-30 09:58:00,73.0,72.4,29.97,SE,126,0.0,5.0,98,0.00,,---,0.00,VWS V14.01,2013-08-30 13:58:00,
2013-08-30 10:03:00,73.5,72.9,29.97,SSE,155,1.0,3.0,98,0.00,,---,0.00,VWS V14.01,2013-08-30 14:03:00,
2013-08-30 10:08:00,74.0,73.4,29.97,SSE,159,0.0,4.0,98,0.00,,---,0.00,VWS V14.01,2013-08-30 14:08:00,
2013-08-30 10:13:00,74.6,73.7,29.97,SE,134,0.0,3.0,97,0.00,,---,0.00,VWS V14.01,2013-08-30 14:13:00,
2013-08-30 10:18:00,75.1,73.6,29.97,ESE,108,0.0,4.0,95,0.00,,---,0.00,VWS V14.01,2013-08-30 14:18:00,
2013-08-30 10:23:00,75.6,73.8,29.97,ESE,104,0.0,2.0,94,0.00,,---,0.00,VWS V14.01,2013-08-30 14:23:00,
2013-08-30 10:28:00,76.3,73.8,29.97,ESE,111,0.0,4.0,92,0.00,,---,0.00,VWS V14.01,2013-08-30 14:28:00,
2013-08-30 10:33:00,76.9,74.1,29.97,SSW,194,0.0,4.0,91,0.00,,---,0.00,VWS V14.01,2013-08-30 14:33:00,
2013-08-30 10:38:00,77.4,73.9,29.96,South,178,0.0,2.0,89,0.00,,---,0.00,VWS V14.01,2013-08-30 14:38:00,
2013-08-30 10:43:00,78.0,73.8,29.97,NW,310,2.0,3.0,87,0.00,,---,0.00,VWS V14.01,2013-08-30 14:43:00,
2013-08-30 10:48:00,78.6,73.4,29.97,ESE,123,2.0,7.0,84,0.00,,---,0.00,VWS V14.01,2013-08-30 14:48:00,
2013-08-30 10:53:00,79.3,73.3,29.96,SSE,167,2.0,7.0,82,0.00,,---,0.00,VWS V14.01,2013-08-30 14:53:00,
2013-08-30 10:58:00,80.0,73.3,29.96,East,87,0.0,6.0,80,0.00,,---,0.00,VWS V14.01,2013-08-30 14:58:00,
2013-08-30 11:03:00,80.4,73.7,29.96,East,92,0.0,2.0,80,0.00,,---,0.00,VWS V14.01,2013-08-30 15:03:00,
2013-08-30 11:08:00,80.8,73.7,29.95,SSE,165,1.0,3.0,79,0.00,,---,0.00,VWS V14.01,2013-08-30 15:08:00,
2013-08-30 11:13:00,81.2,73.7,29.95,SSE,167,1.0,4.0,78,0.00,,---,0.00,VWS V14.01,2013-08-30 15:13:00,
2013-08-30 11:18:00,81.8,73.9,29.95,South,178,0.0,3.0,77,0.00,,---,0.00,VWS V14.01,2013-08-30 15:18:00,
2013-08-30 11:23:00,82.2,73.9,29.95,ESE,110,0.0,3.0,76,0.00,,---,0.00,VWS V14.01,2013-08-30 15:23:00,
2013-08-30 11:28:00,82.7,74.0,29.95,ESE,121,1.0,5.0,75,0.00,,---,0.00,VWS V14.01,2013-08-30 15:28:00,
2013-08-30 11:33:00,83.2,74.8,29.95,SSE,166,3.0,4.0,76,0.00,,---,0.00,VWS V14.01,2013-08-30 15:33:00,
2013-08-30 11:38:00,83.6,74.8,29.94,SSE,148,1.0,5.0,75,0.00,,---,0.00,VWS V14.01,2013-08-30 15:38:00,
2013-08-30 11:43:00,83.9,74.7,29.94,SE,143,2.0,5.0,74,0.00,,---,0.00,VWS V14.01,2013-08-30 15:43:00,
2013-08-30 11:48:00,84.3,75.5,29.94,South,186,0.0,5.0,75,0.00,,---,0.00,VWS V14.01,2013-08-30 15:48:00,
2013-08-30 11:53:00,84.4,74.8,29.94,South,172,0.0,4.0,73,0.00,,---,0.00,VWS V14.01,2013-08-30 15:53:00,
2013-08-30 11:58:00,84.5,74.5,29.94,SSE,154,0.0,2.0,72,0.00,,---,0.00,VWS V14.01,2013-08-30 15:58:00,
2013-08-30 12:03:00,84.5,74.5,29.94,North,11,0.0,1.0,72,0.00,,---,0.00,VWS V14.01,2013-08-30 16:03:00,
2013-08-30 12:08:00,84.4,74.4,29.93,SSE,162,1.0,2.0,72,0.00,,---,0.00,VWS V14.01,2013-08-30 16:08:00,
2013-08-30 12:13:00,84.3,74.7,29.93,West,259,1.0,3.0,73,0.00,,---,0.00,VWS V14.01,2013-08-30 16:13:00,
2013-08-30 12:18:00,84.3,74.3,29.92,WNW,289,0.0,3.0,72,0.00,,---,0.00,VWS V14.01,2013-08-30 16:18:00,
2013-08-30 12:23:00,84.2,73.8,29.92,West,262,5.0,5.0,71,0.00,,---,0.00,VWS V14.01,2013-08-30 16:23:00,
2013-08-30 12:28:00,84.0,74.0,29.92,SSE,168,0.0,2.0,72,0.00,,---,0.00,VWS V14.01,2013-08-30 16:28:00,
2013-08-30 12:33:00,84.0,74.8,29.92,South,171,0.0,1.0,74,0.00,,---,0.00,VWS V14.01,2013-08-30 16:33:00,
2013-08-30 12:38:00,84.0,75.2,29.92,SSW,200,0.0,2.0,75,0.00,,---,0.00,VWS V14.01,2013-08-30 16:38:00,
2013-08-30 12:43:00,84.0,74.4,29.92,East,80,0.0,3.0,73,0.00,,---,0.00,VWS V14.01,2013-08-30 16:43:00,
2013-08-30 12:48:00,84.2,73.8,29.92,SE,126,5.0,6.0,71,0.00,,---,0.00,VWS V14.01,2013-08-30 16:48:00,
2013-08-30 12:53:00,84.0,73.6,29.92,ESE,110,0.0,4.0,71,0.00,,---,0.00,VWS V14.01,2013-08-30 16:53:00,
2013-08-30 12:58:00,84.2,74.6,29.91,SSE,157,1.0,3.0,73,0.00,,---,0.00,VWS V14.01,2013-08-30 16:58:00,
2013-08-30 13:03:00,84.5,74.9,29.91,NW,308,0.0,3.0,73,0.00,,---,0.00,VWS V14.01,2013-08-30 17:03:00,
2013-08-30 13:08:00,84.5,73.7,29.91,ENE,69,0.0,4.0,70,0.00,,---,0.00,VWS V14.01,2013-08-30 17:08:00,
2013-08-30 13:13:00,84.5,74.1,29.91,SW,234,1.0,3.0,71,0.00,,---,0.00,VWS V14.01,2013-08-30 17:13:00,
2013-08-30 13:18:00,84.4,73.6,29.91,South,186,1.0,6.0,70,0.00,,---,0.00,VWS V14.01,2013-08-30 17:18:00,
2013-08-30 13:23:00,84.4,74.8,29.91,WSW,241,0.0,1.0,73,0.00,,---,0.00,VWS V14.01,2013-08-30 17:23:00,
2013-08-30 13:28:00,84.7,75.9,29.91,WSW,252,2.0,3.0,75,0.00,,---,0.00,VWS V14.01,2013-08-30 17:28:00,
2013-08-30 13:33:00,84.9,75.3,29.90,South,181,0.0,2.0,73,0.00,,---,0.00,VWS V14.01,2013-08-30 17:33:00,
2013-08-30 13:38:00,84.8,75.2,29.90,WNW,283,0.0,5.0,73,0.00,,---,0.00,VWS V14.01,2013-08-30 17:38:00,
2013-08-30 13:43:00,85.0,75.0,29.90,West,269,1.0,4.0,72,0.00,,---,0.00,VWS V14.01,2013-08-30 17:43:00,
2013-08-30 13:48:00,85.4,75.8,29.90,NW,313,0.0,4.0,73,0.00,,---,0.00,VWS V14.01,2013-08-30 17:48:00,
2013-08-30 13:53:00,85.7,75.2,29.90,SSE,155,0.0,4.0,71,0.00,,---,0.00,VWS V14.01,2013-08-30 17:53:00,
2013-08-30 13:58:00,86.2,76.5,29.90,East,84,0.0,3.0,73,0.00,,---,0.00,VWS V14.01,2013-08-30 17:58:00,
2013-08-30 14:03:00,86.6,74.8,29.90,SSE,153,3.0,6.0,68,0.00,,---,0.00,VWS V14.01,2013-08-30 18:03:00,
2013-08-30 14:08:00,86.9,75.1,29.89,South,169,0.0,3.0,68,0.00,,---,0.00,VWS V14.01,2013-08-30 18:08:00,
2013-08-30 14:14:00,87.0,76.0,29.89,SE,140,0.0,4.0,70,0.00,,---,0.00,VWS V14.01,2013-08-30 18:14:00,
2013-08-30 14:18:00,87.2,76.2,29.89,NNE,31,0.0,2.0,70,0.00,,---,0.00,VWS V14.01,2013-08-30 18:18:00,
2013-08-30 14:24:00,87.3,75.0,29.89,SSE,154,0.0,4.0,67,0.00,,---,0.00,VWS V14.01,2013-08-30 18:24:00,
2013-08-30 14:29:00,87.5,75.6,29.89,South,177,2.0,3.0,68,0.00,,---,0.00,VWS V14.01,2013-08-30 18:29:00,
2013-08-30 14:33:00,87.7,74.0,29.89,SW,225,0.0,7.0,64,0.00,,---,0.00,VWS V14.01,2013-08-30 18:33:00,
2013-08-30 14:39:00,88.0,75.7,29.89,SE,140,0.0,3.0,67,0.00,,---,0.00,VWS V14.01,2013-08-30 18:39:00,
2013-08-30 14:43:00,88.4,75.6,29.89,WSW,246,0.0,4.0,66,0.00,,---,0.00,VWS V14.01,2013-08-30 18:43:00,
2013-08-30 14:48:00,88.5,73.8,29.88,ESE,109,1.0,6.0,62,0.00,,---,0.00,VWS V14.01,2013-08-30 18:48:00,
2013-08-30 14:53:00,88.6,74.9,29.88,WNW,285,2.0,6.0,64,0.00,,---,0.00,VWS V14.01,2013-08-30 18:53:00,
2013-08-30 14:58:00,88.8,74.1,29.88,ESE,110,1.0,4.0,62,0.00,,---,0.00,VWS V14.01,2013-08-30 18:58:00,
2013-08-30 15:03:00,88.8,74.1,29.88,ENE,57,0.0,4.0,62,0.00,,---,0.00,VWS V14.01,2013-08-30 19:03:00,
2013-08-30 15:08:00,89.0,76.6,29.88,SSE,165,2.0,7.0,67,0.00,,---,0.00,VWS V14.01,2013-08-30 19:08:00,
2013-08-30 15:13:00,89.1,74.4,29.88,SE,142,3.0,5.0,62,0.00,,---,0.00,VWS V14.01,2013-08-30 19:13:00,
2013-08-30 15:18:00,89.1,74.9,29.88,SE,138,1.0,3.0,63,0.00,,---,0.00,VWS V14.01,2013-08-30 19:18:00,
2013-08-30 15:23:00,89.0,75.7,29.88,SSE,163,0.0,4.0,65,0.00,,---,0.00,VWS V14.01,2013-08-30 19:23:00,
2013-08-30 15:28:00,88.9,75.6,29.88,SW,221,0.0,3.0,65,0.00,,---,0.00,VWS V14.01,2013-08-30 19:28:00,
2013-08-30 15:33:00,88.8,75.5,29.87,ESE,121,0.0,2.0,65,0.00,,---,0.00,VWS V14.01,2013-08-30 19:33:00,
2013-08-30 15:38:00,88.8,75.5,29.87,SE,142,0.0,4.0,65,0.00,,---,0.00,VWS V14.01,2013-08-30 19:38:00,
2013-08-30 15:43:00,88.8,75.1,29.87,ESE,105,2.0,9.0,64,0.00,,---,0.00,VWS V14.01,2013-08-30 19:43:00,
2013-08-30 15:49:00,88.6,74.4,29.87,West,273,1.0,6.0,63,0.00,,---,0.00,VWS V14.01,2013-08-30 19:49:00,
2013-08-30 15:53:00,88.7,75.4,29.87,SSW,192,0.0,2.0,65,0.00,,---,0.00,VWS V14.01,2013-08-30 19:53:00,
2013-08-30 15:58:00,88.7,75.4,29.86,ESE,112,2.0,6.0,65,0.00,,---,0.00,VWS V14.01,2013-08-30 19:58:00,
2013-08-30 16:03:00,88.7,75.0,29.86,South,169,3.0,5.0,64,0.00,,---,0.00,VWS V14.01,2013-08-30 20:03:00,
2013-08-30 16:08:00,88.8,74.1,29.86,South,189,3.0,5.0,62,0.00,,---,0.00,VWS V14.01,2013-08-30 20:08:00,
2013-08-30 16:13:00,88.9,73.7,29.86,SSE,159,0.0,4.0,61,0.00,,---,0.00,VWS V14.01,2013-08-30 20:13:00,
2013-08-30 16:18:00,89.0,73.8,29.86,SSE,155,5.0,6.0,61,0.00,,---,0.00,VWS V14.01,2013-08-30 20:18:00,
2013-08-30 16:23:00,88.8,73.6,29.85,SE,142,3.0,7.0,61,0.00,,---,0.00,VWS V14.01,2013-08-30 20:23:00,
2013-08-30 16:28:00,88.8,74.1,29.86,South,184,0.0,5.0,62,0.00,,---,0.00,VWS V14.01,2013-08-30 20:28:00,
2013-08-30 16:33:00,88.8,73.6,29.85,SE,134,0.0,9.0,61,0.00,,---,0.00,VWS V14.01,2013-08-30 20:33:00,
2013-08-30 16:38:00,88.9,75.6,29.85,SE,133,0.0,3.0,65,0.00,,---,0.00,VWS V14.01,2013-08-30 20:38:00,
2013-08-30 16:43:00,88.8,74.1,29.85,SSW,193,2.0,4.0,62,0.00,,---,0.00,VWS V14.01,2013-08-30 20:43:00,
2013-08-30 16:48:00,88.7,74.5,29.85,SSE,154,2.0,3.0,63,0.00,,---,0.00,VWS V14.01,2013-08-30 20:48:00,
2013-08-30 16:53:00,88.7,74.5,29.85,SW,226,0.0,2.0,63,0.00,,---,0.00,VWS V14.01,2013-08-30 20:53:00,
2013-08-30 16:59:00,88.5,73.3,29.85,WNW,291,0.0,5.0,61,0.00,,---,0.00,VWS V14.01,2013-08-30 20:59:00,
2013-08-30 17:04:00,88.4,73.7,29.85,SW,232,0.0,3.0,62,0.00,,---,0.00,VWS V14.01,2013-08-30 21:04:00,
2013-08-30 17:09:00,88.5,74.3,29.84,East,83,0.0,3.0,63,0.00,,---,0.00,VWS V14.01,2013-08-30 21:09:00,
2013-08-30 17:13:00,88.4,73.7,29.84,East,99,1.0,4.0,62,0.00,,---,0.00,VWS V14.01,2013-08-30 21:13:00,
2013-08-30 17:18:00,88.3,74.6,29.84,SSE,163,0.0,4.0,64,0.00,,---,0.00,VWS V14.01,2013-08-30 21:18:00,
2013-08-30 17:23:00,88.3,74.1,29.84,ESE,103,0.0,4.0,63,0.00,,---,0.00,VWS V14.01,2013-08-30 21:23:00,
2013-08-30 17:28:00,88.2,74.5,29.84,SE,140,0.0,4.0,64,0.00,,---,0.00,VWS V14.01,2013-08-30 21:28:00,
2013-08-30 17:33:00,88.2,74.5,29.83,SSE,156,0.0,3.0,64,0.00,,---,0.00,VWS V14.01,2013-08-30 21:33:00,
2013-08-30 17:38:00,88.2,75.0,29.83,SSE,168,0.0,3.0,65,0.00,,---,0.00,VWS V14.01,2013-08-30 21:38:00,
2013-08-30 17:43:00,88.1,75.3,29.83,East,96,0.0,3.0,66,0.00,,---,0.00,VWS V14.01,2013-08-30 21:43:00,
2013-08-30 17:48:00,88.0,74.8,29.83,ENE,76,0.0,2.0,65,0.00,,---,0.00,VWS V14.01,2013-08-30 21:48:00,
2013-08-30 17:53:00,87.6,73.5,29.83,SE,133,0.0,5.0,63,0.00,,---,0.00,VWS V14.01,2013-08-30 21:53:00,
2013-08-30 17:58:00,87.2,74.0,29.82,SE,146,0.0,2.0,65,0.00,,---,0.00,VWS V14.01,2013-08-30 21:58:00,
2013-08-30 18:03:00,86.9,74.2,29.82,SE,134,0.0,3.0,66,0.00,,---,0.00,VWS V14.01,2013-08-30 22:03:00,
2013-08-30 18:08:00,86.4,74.2,29.82,SE,130,0.0,2.0,67,0.00,,---,0.00,VWS V14.01,2013-08-30 22:08:00,
2013-08-30 18:14:00,85.8,73.6,29.82,SE,140,0.0,1.0,67,0.00,,---,0.00,VWS V14.01,2013-08-30 22:14:00,
2013-08-30 18:18:00,85.3,73.6,29.82,SW,232,0.0,2.0,68,0.00,,---,0.00,VWS V14.01,2013-08-30 22:18:00,
2013-08-30 18:24:00,84.9,73.2,29.81,South,170,0.0,2.0,68,0.00,,---,0.00,VWS V14.01,2013-08-30 22:24:00,
2013-08-30 18:28:00,84.4,73.1,29.81,WSW,252,1.0,4.0,69,0.00,,---,0.00,VWS V14.01,2013-08-30 22:28:00,
2013-08-30 18:34:00,84.0,73.6,29.81,SSW,208,0.0,1.0,71,0.00,,---,0.00,VWS V14.01,2013-08-30 22:34:00,
2013-08-30 18:38:00,83.6,73.6,29.80,SSW,208,0.0,0.0,72,0.00,,---,0.00,VWS V14.01,2013-08-30 22:38:00,
2013-08-30 18:43:00,83.2,74.1,29.80,SSW,200,0.0,0.0,74,0.00,,---,0.00,VWS V14.01,2013-08-30 22:43:00,
2013-08-30 18:48:00,82.9,74.2,29.80,SSW,201,0.0,0.0,75,0.00,,---,0.00,VWS V14.01,2013-08-30 22:48:00,
2013-08-30 18:53:00,82.5,74.2,29.80,SSW,201,0.0,0.0,76,0.00,,---,0.00,VWS V14.01,2013-08-30 22:53:00,
2013-08-30 18:58:00,82.1,73.8,29.80,SSW,200,0.0,1.0,76,0.00,,---,0.00,VWS V14.01,2013-08-30 22:58:00,
2013-08-30 19:03:00,81.7,73.8,29.80,SSW,200,0.0,0.0,77,0.00,,---,0.00,VWS V14.01,2013-08-30 23:03:00,
2013-08-30 19:08:00,81.4,73.9,29.80,SSW,200,0.0,0.0,78,0.00,,---,0.00,VWS V14.01,2013-08-30 23:08:00,
2013-08-30 19:13:00,80.9,73.8,29.80,SSW,200,0.0,0.0,79,0.00,,---,0.00,VWS V14.01,2013-08-30 23:13:00,
2013-08-30 19:18:00,80.5,73.8,29.80,SSW,200,0.0,0.0,80,0.00,,---,0.00,VWS V14.01,2013-08-30 23:18:00,
2013-08-30 19:23:00,80.1,73.8,29.80,SSW,200,0.0,0.0,81,0.00,,---,0.00,VWS V14.01,2013-08-30 23:23:00,
2013-08-30 19:28:00,79.6,73.6,29.80,SSW,201,0.0,0.0,82,0.00,,---,0.00,VWS V14.01,2013-08-30 23:28:00,
2013-08-30 19:33:00,79.2,73.6,29.80,SSW,201,0.0,0.0,83,0.00,,---,0.00,VWS V14.01,2013-08-30 23:33:00,
2013-08-30 19:38:00,78.8,73.2,29.80,SSW,201,0.0,0.0,83,0.00,,---,0.00,VWS V14.01,2013-08-30 23:38:00,
2013-08-30 19:43:00,78.4,73.2,29.80,SSW,201,0.0,0.0,84,0.00,,---,0.00,VWS V14.01,2013-08-30 23:43:00,
2013-08-30 19:48:00,78.0,72.8,29.80,SSW,201,0.0,0.0,84,0.00,,---,0.00,VWS V14.01,2013-08-30 23:48:00,
2013-08-30 19:53:00,77.7,72.8,29.80,SSW,201,0.0,0.0,85,0.00,,---,0.00,VWS V14.01,2013-08-30 23:53:00,
2013-08-30 19:58:00,77.3,72.4,29.80,SSW,201,0.0,0.0,85,0.00,,---,0.00,VWS V14.01,2013-08-30 23:58:00,
2013-08-30 20:03:00,76.9,72.4,29.81,SSW,201,0.0,0.0,86,0.00,,---,0.00,VWS V14.01,2013-08-31 00:03:00,
2013-08-30 20:08:00,76.6,72.1,29.81,SSW,201,0.0,0.0,86,0.00,,---,0.00,VWS V14.01,2013-08-31 00:08:00,
2013-08-30 20:13:00,76.2,72.1,29.82,SSW,201,0.0,0.0,87,0.00,,---,0.00,VWS V14.01,2013-08-31 00:13:00,
2013-08-30 20:18:00,75.9,71.8,29.82,SSW,201,0.0,0.0,87,0.00,,---,0.00,VWS V14.01,2013-08-31 00:18:00,
2013-08-30 20:23:00,75.6,71.5,29.82,SSW,201,0.0,0.0,87,0.00,,---,0.00,VWS V14.01,2013-08-31 00:23:00,
2013-08-30 20:28:00,75.3,71.5,29.83,SSW,201,0.0,0.0,88,0.00,,---,0.00,VWS V14.01,2013-08-31 00:28:00,
2013-08-30 20:33:00,74.9,71.1,29.83,SSW,201,0.0,0.0,88,0.00,,---,0.00,VWS V14.01,2013-08-31 00:33:00,
2013-08-30 20:38:00,74.7,70.9,29.83,SSW,201,0.0,0.0,88,0.00,,---,0.00,VWS V14.01,2013-08-31 00:38:00,
2013-08-30 20:43:00,74.5,71.1,29.83,SSW,201,0.0,0.0,89,0.00,,---,0.00,VWS V14.01,2013-08-31 00:43:00,
2013-08-30 20:48:00,74.2,70.8,29.83,SSW,201,0.0,0.0,89,0.00,,---,0.00,VWS V14.01,2013-08-31 00:48:00,
2013-08-30 20:53:00,74.0,70.6,29.83,SSW,201,0.0,0.0,89,0.00,,---,0.00,VWS V14.01,2013-08-31 00:53:00,
2013-08-30 20:58:00,73.7,70.6,29.84,SSW,201,0.0,0.0,90,0.00,,---,0.00,VWS V14.01,2013-08-31 00:58:00,
2013-08-30 21:03:00,73.5,70.4,29.84,SSW,201,0.0,0.0,90,0.00,,---,0.00,VWS V14.01,2013-08-31 01:03:00,
2013-08-30 21:08:00,73.3,70.2,29.84,SSW,201,0.0,0.0,90,0.00,,---,0.00,VWS V14.01,2013-08-31 01:08:00,
2013-08-30 21:13:00,73.1,70.0,29.84,SSW,201,0.0,0.0,90,0.00,,---,0.00,VWS V14.01,2013-08-31 01:13:00,
2013-08-30 21:18:00,73.0,70.2,29.84,SSW,201,0.0,0.0,91,0.00,,---,0.00,VWS V14.01,2013-08-31 01:18:00,
2013-08-30 21:23:00,72.8,70.0,29.84,SSW,201,0.0,0.0,91,0.00,,---,0.00,VWS V14.01,2013-08-31 01:23:00,
2013-08-30 21:28:00,72.6,69.8,29.84,SSW,201,0.0,0.0,91,0.00,,---,0.00,VWS V14.01,2013-08-31 01:28:00,
2013-08-30 21:33:00,72.5,69.7,29.84,SSW,201,0.0,0.0,91,0.00,,---,0.00,VWS V14.01,2013-08-31 01:33:00,
2013-08-30 21:38:00,72.3,69.5,29.83,SSW,201,0.0,0.0,91,0.00,,---,0.00,VWS V14.01,2013-08-31 01:38:00,
2013-08-30 21:43:00,72.2,69.8,29.83,SSW,201,0.0,0.0,92,0.00,,---,0.00,VWS V14.01,2013-08-31 01:43:00,
2013-08-30 21:48:00,72.0,69.6,29.83,SSW,201,0.0,0.0,92,0.00,,---,0.00,VWS V14.01,2013-08-31 01:48:00,
2013-08-30 21:53:00,71.8,69.3,29.83,SSW,201,0.0,0.0,92,0.00,,---,0.00,VWS V14.01,2013-08-31 01:53:00,
2013-08-30 21:58:00,71.7,69.3,29.83,SSW,201,0.0,0.0,92,0.00,,---,0.00,VWS V14.01,2013-08-31 01:58:00,
2013-08-30 22:03:00,71.5,69.1,29.83,SSW,201,0.0,0.0,92,0.00,,---,0.00,VWS V14.01,2013-08-31 02:03:00,
2013-08-30 22:08:00,71.4,69.0,29.83,SSW,201,0.0,0.0,92,0.00,,---,0.00,VWS V14.01,2013-08-31 02:08:00,
2013-08-30 22:13:00,71.3,68.9,29.83,SSW,201,0.0,0.0,92,0.00,,---,0.00,VWS V14.01,2013-08-31 02:13:00,
2013-08-30 22:18:00,71.2,68.8,29.83,SSW,201,0.0,0.0,92,0.00,,---,0.00,VWS V14.01,2013-08-31 02:18:00,
2013-08-30 22:23:00,71.1,68.7,29.82,SSW,201,0.0,0.0,92,0.00,,---,0.00,VWS V14.01,2013-08-31 02:23:00,
2013-08-30 22:28:00,70.9,68.8,29.82,SSW,201,0.0,0.0,93,0.00,,---,0.00,VWS V14.01,2013-08-31 02:28:00,
2013-08-30 22:33:00,70.8,68.7,29.82,SSW,201,0.0,0.0,93,0.00,,---,0.00,VWS V14.01,2013-08-31 02:33:00,
2013-08-30 22:38:00,70.7,68.6,29.83,SSW,201,0.0,0.0,93,0.00,,---,0.00,VWS V14.01,2013-08-31 02:38:00,
2013-08-30 22:43:00,70.6,68.5,29.83,SSW,201,0.0,0.0,93,0.00,,---,0.00,VWS V14.01,2013-08-31 02:43:00,
2013-08-30 22:48:00,70.5,68.4,29.83,SSW,201,0.0,0.0,93,0.00,,---,0.00,VWS V14.01,2013-08-31 02:48:00,
2013-08-30 22:53:00,70.3,68.2,29.82,SSW,201,0.0,0.0,93,0.00,,---,0.00,VWS V14.01,2013-08-31 02:53:00,
2013-08-30 22:58:00,70.2,68.1,29.82,SSW,201,0.0,0.0,93,0.00,,---,0.00,VWS V14.01,2013-08-31 02:58:00,
2013-08-30 23:03:00,70.1,68.0,29.82,SSW,201,0.0,0.0,93,0.00,,---,0.00,VWS V14.01,2013-08-31 03:03:00,
2013-08-30 23:08:00,70.1,68.0,29.82,SSW,201,0.0,0.0,93,0.00,,---,0.00,VWS V14.01,2013-08-31 03:08:00,
2013-08-30 23:13:00,69.9,67.8,29.82,SSW,201,0.0,0.0,93,0.00,,---,0.00,VWS V14.01,2013-08-31 03:13:00,
2013-08-30 23:18:00,69.9,68.1,29.82,SSW,201,0.0,0.0,94,0.00,,---,0.00,VWS V14.01,2013-08-31 03:18:00,
2013-08-30 23:23:00,69.8,68.0,29.82,SSW,201,0.0,0.0,94,0.00,,---,0.00,VWS V14.01,2013-08-31 03:23:00,
2013-08-30 23:28:00,69.7,67.9,29.82,SSW,201,0.0,0.0,94,0.00,,---,0.00,VWS V14.01,2013-08-31 03:28:00,
2013-08-30 23:33:00,69.6,67.8,29.82,SSW,201,0.0,0.0,94,0.00,,---,0.00,VWS V14.01,2013-08-31 03:33:00,
2013-08-30 23:38:00,69.5,67.7,29.82,SSW,201,0.0,0.0,94,0.00,,---,0.00,VWS V14.01,2013-08-31 03:38:00,
2013-08-30 23:43:00,69.4,67.6,29.82,SSW,201,0.0,0.0,94,0.00,,---,0.00,VWS V14.01,2013-08-31 03:43:00,
2013-08-30 23:48:00,69.3,67.5,29.82,SSW,201,0.0,0.0,94,0.00,,---,0.00,VWS V14.01,2013-08-31 03:48:00,
2013-08-30 23:53:00,69.3,67.5,29.81,SSW,201,0.0,0.0,94,0.00,,---,0.00,VWS V14.01,2013-08-31 03:53:00,
2013-08-30 23:58:00,69.2,67.4,29.81,SSW,201,0.0,0.0,94,0.00,,---,0.00,VWS V14.01,2013-08-31 03:58:00,